SWA2581 KMDW-KOMA

Flight info

Callsign SWA2581
Flight time 1h 9m
Altitude 36000
Route PEKUE OBENE DSM LANTK2
Aircraft B738/M-SDE2E3FGHIRWXY/LB1

Departure

Time 2026-05-07 20:34
Airport Chicago Midway International Airport (KMDW)

Arrival

Time 2026-05-07 21:43
Airport Eppley Airfield (KOMA)
Time Latitude Longitude Altitude Speed Heading
2026-05-07 20:22 41.78780 -87.74495 629 ft 0 kts 133°
2026-05-07 20:22 41.78780 -87.74496 629 ft 0 kts 133°
2026-05-07 20:22 41.78780 -87.74495 629 ft 0 kts 133°
2026-05-07 20:23 41.78780 -87.74496 629 ft 0 kts 133°
2026-05-07 20:23 41.78780 -87.74495 629 ft 0 kts 133°
2026-05-07 20:23 41.78780 -87.74496 629 ft 0 kts 133°
2026-05-07 20:24 41.78780 -87.74495 629 ft 0 kts 133°
2026-05-07 20:24 41.78780 -87.74496 629 ft 0 kts 133°
2026-05-07 20:25 41.78780 -87.74495 629 ft 0 kts 133°
2026-05-07 20:25 41.78780 -87.74496 629 ft 0 kts 133°
2026-05-07 20:25 41.78780 -87.74495 629 ft 0 kts 133°
2026-05-07 20:26 41.78780 -87.74496 629 ft 0 kts 133°
2026-05-07 20:27 41.78785 -87.74503 629 ft 2 kts 133°
2026-05-07 20:27 41.78795 -87.74517 629 ft 2 kts 133°
2026-05-07 20:27 41.78805 -87.74531 629 ft 0 kts 133°
2026-05-07 20:28 41.78812 -87.74541 629 ft 2 kts 118°
2026-05-07 20:28 41.78816 -87.74560 629 ft 2 kts 92°
2026-05-07 20:28 41.78814 -87.74580 629 ft 2 kts 68°
2026-05-07 20:28 41.78807 -87.74596 629 ft 0 kts 46°
2026-05-07 20:29 41.78803 -87.74601 629 ft 1 kts 42°
2026-05-07 20:29 41.78802 -87.74603 629 ft 0 kts 43°
2026-05-07 20:31 41.78808 -87.74595 629 ft 3 kts 36°
2026-05-07 20:31 41.78853 -87.74571 629 ft 9 kts 21°
2026-05-07 20:31 41.78911 -87.74513 629 ft 9 kts 42°
2026-05-07 20:31 41.78958 -87.74454 629 ft 9 kts 43°
2026-05-07 20:32 41.79007 -87.74390 629 ft 10 kts 43°
2026-05-07 20:32 41.79062 -87.74322 629 ft 11 kts 43°
2026-05-07 20:32 41.79120 -87.74260 629 ft 9 kts 15°
2026-05-07 20:32 41.79170 -87.74282 629 ft 6 kts 316°
2026-05-07 20:33 41.79179 -87.74320 629 ft 4 kts 258°
2026-05-07 20:33 41.79152 -87.74367 629 ft 8 kts 220°
2026-05-07 20:33 41.79062 -87.74481 629 ft 47 kts 224°
2026-05-07 20:33 41.78644 -87.75009 629 ft 116 kts 224°
2026-05-07 20:34 41.77916 -87.75922 746 ft 162 kts 223°
2026-05-07 20:34 41.77068 -87.76959 1389 ft 172 kts 224°
2026-05-07 20:34 41.76414 -87.78291 2053 ft 185 kts 256°
2026-05-07 20:34 41.76522 -87.79999 2756 ft 190 kts 280°
2026-05-07 20:35 41.77005 -87.81702 3194 ft 209 kts 296°
2026-05-07 20:35 41.77817 -87.83475 3450 ft 235 kts 289°
2026-05-07 20:35 41.78291 -87.85599 4092 ft 242 kts 275°
2026-05-07 20:35 41.78459 -87.87835 4770 ft 250 kts 269°
2026-05-07 20:36 41.78520 -87.90179 5657 ft 251 kts 268°
2026-05-07 20:36 41.78573 -87.92502 6499 ft 254 kts 268°
2026-05-07 20:36 41.78617 -87.94851 7407 ft 254 kts 268°
2026-05-07 20:36 41.78659 -87.97194 8203 ft 257 kts 267°
2026-05-07 20:37 41.78695 -87.99596 8970 ft 260 kts 266°
2026-05-07 20:37 41.78733 -88.02003 9783 ft 262 kts 266°
2026-05-07 20:37 41.78768 -88.04424 10477 ft 267 kts 266°
2026-05-07 20:37 41.78802 -88.07025 10613 ft 292 kts 266°
2026-05-07 20:38 41.78840 -88.09864 10743 ft 317 kts 267°
2026-05-07 20:38 41.78883 -88.12905 10919 ft 337 kts 267°
2026-05-07 20:38 41.78930 -88.16090 11476 ft 345 kts 267°
2026-05-07 20:38 41.78979 -88.19343 12176 ft 349 kts 267°
2026-05-07 20:39 41.79026 -88.22559 12878 ft 351 kts 267°
2026-05-07 20:39 41.79071 -88.25820 13596 ft 353 kts 267°
2026-05-07 20:39 41.79115 -88.29105 14269 ft 355 kts 267°
2026-05-07 20:39 41.79158 -88.32417 14947 ft 357 kts 267°
2026-05-07 20:40 41.79199 -88.35756 15605 ft 359 kts 267°
2026-05-07 20:40 41.79239 -88.39068 16232 ft 361 kts 267°
2026-05-07 20:40 41.79280 -88.42454 16871 ft 363 kts 267°
2026-05-07 20:40 41.79319 -88.45823 17469 ft 365 kts 267°
2026-05-07 20:41 41.79358 -88.49212 18051 ft 367 kts 268°
2026-05-07 20:41 41.79396 -88.52620 18632 ft 369 kts 268°
2026-05-07 20:41 41.79432 -88.56058 19192 ft 371 kts 268°
2026-05-07 20:41 41.79468 -88.59544 19736 ft 373 kts 268°
2026-05-07 20:42 41.79503 -88.62993 20288 ft 375 kts 268°
2026-05-07 20:42 41.79536 -88.66473 20801 ft 377 kts 267°
2026-05-07 20:42 41.79566 -88.70022 21352 ft 378 kts 267°
2026-05-07 20:42 41.79596 -88.73531 21828 ft 380 kts 267°
2026-05-07 20:43 41.79625 -88.77042 22327 ft 382 kts 267°
2026-05-07 20:43 41.79655 -88.80629 22817 ft 384 kts 268°
2026-05-07 20:43 41.79793 -88.84206 23307 ft 386 kts 271°
2026-05-07 20:43 41.80020 -88.87759 23798 ft 387 kts 272°
2026-05-07 20:44 41.80257 -88.91340 24273 ft 388 kts 272°
2026-05-07 20:44 41.80491 -88.94945 24725 ft 389 kts 272°
2026-05-07 20:44 41.80724 -88.98579 25135 ft 391 kts 273°
2026-05-07 20:44 41.80949 -89.02187 25598 ft 391 kts 273°
2026-05-07 20:45 41.81175 -89.05826 25992 ft 393 kts 273°
2026-05-07 20:45 41.81401 -89.09486 26341 ft 395 kts 273°
2026-05-07 20:45 41.81625 -89.13144 26749 ft 396 kts 274°
2026-05-07 20:45 41.81847 -89.16779 27107 ft 397 kts 274°
2026-05-07 20:46 41.82071 -89.20493 27589 ft 396 kts 274°
2026-05-07 20:46 41.82290 -89.24114 28095 ft 393 kts 274°
2026-05-07 20:46 41.82505 -89.27749 28513 ft 393 kts 274°
2026-05-07 20:46 41.82718 -89.31400 29031 ft 389 kts 274°
2026-05-07 20:47 41.82925 -89.35008 29455 ft 388 kts 274°
2026-05-07 20:47 41.83129 -89.38599 29899 ft 386 kts 274°
2026-05-07 20:47 41.83338 -89.42146 30364 ft 383 kts 274°
2026-05-07 20:47 41.83539 -89.45701 30710 ft 383 kts 274°
2026-05-07 20:48 41.83740 -89.49254 31241 ft 378 kts 275°
2026-05-07 20:48 41.83931 -89.52721 31604 ft 377 kts 274°
2026-05-07 20:48 41.84125 -89.56217 31941 ft 377 kts 275°
2026-05-07 20:48 41.84322 -89.59697 32298 ft 375 kts 275°
2026-05-07 20:49 41.84522 -89.63204 32600 ft 375 kts 275°
2026-05-07 20:49 41.84714 -89.66678 32975 ft 374 kts 274°
2026-05-07 20:49 41.84848 -89.70152 33345 ft 372 kts 271°
2026-05-07 20:49 41.84751 -89.73614 33680 ft 372 kts 267°
2026-05-07 20:50 41.84488 -89.77012 34072 ft 370 kts 266°
2026-05-07 20:50 41.84203 -89.80417 34357 ft 370 kts 266°
2026-05-07 20:50 41.83915 -89.83849 34710 ft 368 kts 266°
2026-05-07 20:50 41.83622 -89.87270 34951 ft 369 kts 266°
2026-05-07 20:51 41.83334 -89.90655 35239 ft 368 kts 266°
2026-05-07 20:51 41.83042 -89.94061 35516 ft 367 kts 266°
2026-05-07 20:51 41.82742 -89.97412 35778 ft 366 kts 265°
2026-05-07 20:51 41.82433 -90.00828 35932 ft 368 kts 266°
2026-05-07 20:52 41.82129 -90.04230 35914 ft 368 kts 266°
2026-05-07 20:52 41.81533 -90.10944 35921 ft 362 kts 266°
2026-05-07 20:53 41.80931 -90.17602 35923 ft 362 kts 266°
2026-05-07 20:53 41.80316 -90.24297 35927 ft 363 kts 266°
2026-05-07 20:54 41.79698 -90.31037 35928 ft 365 kts 266°
2026-05-07 20:54 41.79080 -90.37761 35926 ft 364 kts 266°
2026-05-07 20:55 41.78457 -90.44436 35926 ft 361 kts 266°
2026-05-07 20:55 41.77829 -90.51118 35927 ft 362 kts 266°
2026-05-07 20:56 41.77191 -90.57808 35930 ft 364 kts 266°
2026-05-07 20:56 41.76553 -90.64513 35932 ft 364 kts 266°
2026-05-07 20:57 41.75896 -90.71238 35935 ft 364 kts 265°
2026-05-07 20:57 41.75248 -90.77921 35934 ft 362 kts 265°
2026-05-07 20:58 41.74604 -90.84611 35937 ft 363 kts 265°
2026-05-07 20:58 41.73951 -90.91271 35935 ft 363 kts 265°
2026-05-07 20:59 41.73289 -90.97995 35936 ft 364 kts 265°
2026-05-07 20:59 41.72639 -91.04709 35941 ft 365 kts 265°
2026-05-07 21:00 41.71971 -91.11419 35944 ft 366 kts 265°
2026-05-07 21:00 41.71298 -91.18134 35951 ft 365 kts 265°
2026-05-07 21:01 41.70622 -91.24860 35954 ft 365 kts 266°
2026-05-07 21:01 41.69944 -91.31577 35954 ft 364 kts 265°
2026-05-07 21:02 41.69257 -91.38273 35953 ft 365 kts 265°
2026-05-07 21:02 41.68565 -91.44961 35953 ft 365 kts 265°
2026-05-07 21:03 41.67863 -91.51701 35948 ft 365 kts 266°
2026-05-07 21:03 41.67168 -91.58401 35945 ft 365 kts 266°
2026-05-07 21:04 41.66478 -91.65086 35941 ft 364 kts 265°
2026-05-07 21:04 41.65766 -91.71802 35938 ft 365 kts 265°
2026-05-07 21:05 41.65048 -91.78570 35933 ft 367 kts 265°
2026-05-07 21:05 41.64336 -91.85274 35924 ft 365 kts 265°
2026-05-07 21:06 41.63622 -91.91966 35918 ft 363 kts 265°
2026-05-07 21:06 41.62906 -91.98640 35919 ft 363 kts 265°
2026-05-07 21:07 41.62183 -92.05334 35918 ft 366 kts 265°
2026-05-07 21:07 41.61458 -92.12026 35917 ft 366 kts 265°
2026-05-07 21:08 41.60724 -92.18752 35917 ft 365 kts 265°
2026-05-07 21:08 41.60001 -92.25410 35927 ft 364 kts 265°
2026-05-07 21:09 41.59259 -92.32084 35934 ft 364 kts 265°
2026-05-07 21:09 41.58518 -92.38757 35940 ft 366 kts 265°
2026-05-07 21:10 41.57768 -92.45493 35942 ft 366 kts 265°
2026-05-07 21:10 41.57016 -92.52185 35942 ft 365 kts 265°
2026-05-07 21:11 41.56265 -92.58865 35944 ft 365 kts 265°
2026-05-07 21:11 41.55132 -92.68933 35922 ft 366 kts 264°
2026-05-07 21:12 41.54354 -92.75595 35918 ft 365 kts 264°
2026-05-07 21:12 41.53579 -92.82268 35914 ft 363 kts 264°
2026-05-07 21:13 41.52812 -92.88890 35913 ft 363 kts 264°
2026-05-07 21:13 41.52032 -92.95582 35912 ft 367 kts 264°
2026-05-07 21:14 41.51238 -93.02318 35910 ft 371 kts 265°
2026-05-07 21:14 41.50436 -93.09190 35908 ft 376 kts 265°
2026-05-07 21:15 41.49628 -93.16069 35908 ft 379 kts 265°
2026-05-07 21:15 41.48811 -93.23019 35908 ft 379 kts 265°
2026-05-07 21:16 41.47980 -93.29933 35907 ft 379 kts 265°
2026-05-07 21:16 41.47144 -93.36832 35908 ft 376 kts 265°
2026-05-07 21:17 41.46319 -93.43729 35906 ft 378 kts 265°
2026-05-07 21:17 41.45485 -93.50635 35899 ft 380 kts 265°
2026-05-07 21:18 41.44644 -93.57585 35892 ft 380 kts 265°
2026-05-07 21:18 41.44020 -93.64510 35888 ft 375 kts 272°
2026-05-07 21:19 41.44179 -93.71443 35890 ft 373 kts 275°
2026-05-07 21:19 41.44527 -93.78307 35737 ft 368 kts 276°
2026-05-07 21:20 41.44704 -93.81644 35128 ft 368 kts 276°
2026-05-07 21:20 41.44886 -93.85055 34417 ft 368 kts 276°
2026-05-07 21:20 41.45069 -93.88434 33726 ft 368 kts 276°
2026-05-07 21:20 41.45253 -93.91851 33067 ft 371 kts 276°
2026-05-07 21:21 41.45441 -93.95277 32579 ft 376 kts 276°
2026-05-07 21:21 41.45631 -93.98762 31829 ft 381 kts 276°
2026-05-07 21:21 41.45825 -94.02251 31060 ft 381 kts 276°
2026-05-07 21:21 41.46013 -94.05720 30509 ft 375 kts 276°
2026-05-07 21:22 41.46191 -94.09166 29988 ft 370 kts 276°
2026-05-07 21:22 41.46369 -94.12579 29421 ft 365 kts 276°
2026-05-07 21:22 41.46548 -94.15910 28886 ft 361 kts 276°
2026-05-07 21:22 41.46721 -94.19217 28347 ft 357 kts 276°
2026-05-07 21:23 41.46892 -94.22498 27817 ft 361 kts 276°
2026-05-07 21:23 41.47061 -94.25822 27253 ft 359 kts 276°
2026-05-07 21:23 41.47229 -94.29132 26703 ft 354 kts 276°
2026-05-07 21:23 41.47401 -94.32381 26162 ft 349 kts 276°
2026-05-07 21:24 41.47568 -94.35576 25630 ft 345 kts 276°
2026-05-07 21:24 41.47727 -94.38721 25105 ft 341 kts 276°
2026-05-07 21:24 41.47886 -94.41834 24588 ft 338 kts 276°
2026-05-07 21:24 41.48047 -94.44990 24064 ft 343 kts 276°
2026-05-07 21:25 41.48205 -94.48136 23513 ft 340 kts 276°
2026-05-07 21:25 41.48359 -94.51259 22980 ft 336 kts 276°
2026-05-07 21:25 41.48510 -94.54321 22463 ft 331 kts 276°
2026-05-07 21:25 41.48661 -94.57352 21947 ft 327 kts 276°
2026-05-07 21:26 41.48807 -94.60364 21431 ft 324 kts 276°
2026-05-07 21:26 41.48950 -94.63324 20919 ft 320 kts 276°
2026-05-07 21:26 41.49094 -94.66309 20408 ft 323 kts 276°
2026-05-07 21:26 41.49234 -94.69289 19887 ft 323 kts 276°
2026-05-07 21:27 41.49371 -94.72230 19367 ft 320 kts 276°
2026-05-07 21:27 41.49508 -94.75154 18858 ft 316 kts 276°
2026-05-07 21:27 41.49644 -94.78085 18362 ft 312 kts 276°
2026-05-07 21:27 41.49777 -94.80936 17871 ft 309 kts 276°
2026-05-07 21:28 41.49908 -94.83775 17369 ft 306 kts 276°
2026-05-07 21:28 41.50036 -94.86591 16967 ft 301 kts 277°
2026-05-07 21:28 41.50166 -94.89414 16507 ft 310 kts 277°
2026-05-07 21:28 41.50297 -94.92248 15955 ft 310 kts 277°
2026-05-07 21:29 41.50426 -94.95095 15460 ft 306 kts 277°
2026-05-07 21:29 41.50554 -94.97920 14988 ft 302 kts 278°
2026-05-07 21:29 41.50678 -95.00674 14516 ft 299 kts 278°
2026-05-07 21:29 41.50802 -95.03408 14039 ft 296 kts 278°
2026-05-07 21:30 41.50929 -95.06191 13552 ft 302 kts 278°
2026-05-07 21:30 41.51056 -95.08957 13053 ft 300 kts 278°
2026-05-07 21:30 41.51072 -95.11749 12499 ft 303 kts 269°
2026-05-07 21:30 41.50494 -95.14445 11927 ft 316 kts 249°
2026-05-07 21:31 41.49240 -95.16914 11421 ft 320 kts 240°
2026-05-07 21:31 41.47890 -95.19263 10872 ft 320 kts 240°
2026-05-07 21:31 41.46566 -95.21561 10535 ft 312 kts 240°
2026-05-07 21:31 41.45272 -95.23808 10366 ft 297 kts 240°
2026-05-07 21:32 41.44058 -95.25921 10271 ft 280 kts 241°
2026-05-07 21:32 41.42900 -95.27942 10096 ft 270 kts 241°
2026-05-07 21:32 41.41782 -95.29909 9802 ft 266 kts 241°
2026-05-07 21:32 41.40675 -95.31862 9505 ft 263 kts 241°
2026-05-07 21:33 41.39576 -95.33796 9167 ft 262 kts 240°
2026-05-07 21:33 41.38479 -95.35724 8838 ft 260 kts 240°
2026-05-07 21:33 41.37387 -95.37640 8496 ft 260 kts 240°
2026-05-07 21:33 41.36308 -95.39535 8156 ft 259 kts 240°
2026-05-07 21:34 41.35216 -95.41449 7819 ft 258 kts 240°
2026-05-07 21:34 41.34133 -95.43342 7479 ft 258 kts 240°
2026-05-07 21:34 41.33044 -95.45248 7141 ft 257 kts 239°
2026-05-07 21:34 41.31976 -95.47116 6806 ft 257 kts 239°
2026-05-07 21:35 41.30880 -95.49028 6468 ft 260 kts 239°
2026-05-07 21:35 41.29761 -95.50980 6132 ft 269 kts 239°
2026-05-07 21:35 41.28639 -95.52956 5761 ft 270 kts 239°
2026-05-07 21:35 41.27491 -95.54909 5422 ft 270 kts 238°
2026-05-07 21:36 41.26367 -95.56885 5070 ft 269 kts 237°
2026-05-07 21:36 41.25224 -95.58882 4711 ft 270 kts 237°
2026-05-07 21:36 41.24084 -95.60850 4364 ft 270 kts 237°
2026-05-07 21:36 41.22935 -95.62830 4026 ft 270 kts 237°
2026-05-07 21:37 41.21796 -95.64794 3712 ft 268 kts 237°
2026-05-07 21:37 41.20679 -95.66738 3528 ft 257 kts 236°
2026-05-07 21:37 41.19836 -95.68206 3447 ft 246 kts 235°
2026-05-07 21:38 41.19150 -95.69417 3390 ft 237 kts 238°
2026-05-07 21:38 41.18203 -95.71130 3317 ft 223 kts 236°
2026-05-07 21:39 41.17343 -95.72734 3216 ft 210 kts 249°
2026-05-07 21:39 41.17065 -95.74542 3135 ft 192 kts 279°
2026-05-07 21:39 41.17513 -95.76055 3069 ft 171 kts 313°
2026-05-07 21:39 41.18354 -95.77171 3056 ft 172 kts 311°
2026-05-07 21:40 41.18951 -95.78552 2961 ft 176 kts 300°
2026-05-07 21:40 41.19746 -95.79664 2898 ft 162 kts 330°
2026-05-07 21:40 41.20690 -95.80469 2887 ft 158 kts 326°
2026-05-07 21:40 41.21575 -95.81304 2790 ft 156 kts 325°
2026-05-07 21:41 41.22458 -95.82140 2631 ft 149 kts 326°
2026-05-07 21:41 41.23308 -95.82955 2447 ft 151 kts 326°
2026-05-07 21:41 41.24150 -95.83755 2237 ft 143 kts 323°
2026-05-07 21:41 41.24976 -95.84531 2062 ft 145 kts 324°
2026-05-07 21:42 41.25806 -95.85314 1856 ft 148 kts 326°
2026-05-07 21:42 41.26648 -95.86118 1696 ft 147 kts 323°
2026-05-07 21:42 41.27515 -95.86919 1580 ft 158 kts 325°
2026-05-07 21:42 41.28408 -95.87783 1366 ft 160 kts 325°
2026-05-07 21:43 41.29299 -95.88630 1043 ft 152 kts 324°
2026-05-07 21:43 41.30094 -95.89384 981 ft 122 kts 325°
2026-05-07 21:43 41.30507 -95.89777 982 ft 35 kts 326°
2026-05-07 21:43 41.30550 -95.89881 981 ft 9 kts 228°
2026-05-07 21:44 41.30523 -95.89924 981 ft 1 kts 225°
2026-05-07 21:44 41.30506 -95.89931 980 ft 4 kts 187°
2026-05-07 21:44 41.30463 -95.89914 980 ft 8 kts 146°
2026-05-07 21:44 41.30404 -95.89857 980 ft 12 kts 145°
2026-05-07 21:45 41.30328 -95.89786 980 ft 14 kts 144°
2026-05-07 21:45 41.30240 -95.89701 980 ft 16 kts 144°
2026-05-07 21:45 41.30148 -95.89618 980 ft 14 kts 154°
2026-05-07 21:45 41.30056 -95.89603 980 ft 12 kts 180°
2026-05-07 21:46 41.29998 -95.89651 980 ft 9 kts 259°
2026-05-07 21:46 41.29990 -95.89737 980 ft 8 kts 258°
2026-05-07 21:46 41.29986 -95.89810 980 ft 6 kts 273°
2026-05-07 21:46 41.30006 -95.89861 980 ft 5 kts 314°
2026-05-07 21:47 41.30035 -95.89871 980 ft 3 kts 357°
2026-05-07 21:47 41.30042 -95.89872 980 ft 0 kts 351°